Location: Huesca
(42.1318°N, 0.4078°W)
Time: 23:14:36
(UTC+02:00)

CUTE 1.7 + AOD 2 - Pass Details

Date: 29 April 2024
Orbit: 569 x 586 km, 97.8° (Epoch: 26 May)

Event Time Altitude Azimuth Distance (km) Brightness Sun altitude
Rises 05:49:59 0° 9° (N) 2,783 ? -12.3°
Reaches altitude 10° 05:52:09 10° 6° (N) 1,880 ? -12.0°
Maximum altitude 05:56:10 63° 286° (WNW) 639 ? -11.4°
Enters shadow 06:00:09 10° 205° (SSW) 1,863 ? -10.7°
